Location: Lombard
(41.8800°N, 88.0080°W)
Time: 00:48:12
(UTC-05:00)

A-11 Canister half - Visible Passes

Search period start: 23 April 2025 00:00
Search period end: 03 May 2025 00:00
Orbit: 1514 x 1685 km, 47.2° (Epoch: 21 April)

Date Brightness Start Highest point End Pass type
(mag) Time Alt. Az. Time Alt. Az. Time Alt. Az.
23 Apr 10.9 05:07:14 10° SSE 05:12:55 18° SE 05:18:36 10° E visible
24 Apr 10.9 04:44:48 10° SSE 04:50:01 17° SE 04:55:14 10° E visible
25 Apr 10.9 04:22:29 10° SSE 04:27:07 15° SE 04:31:46 10° E visible
26 Apr 10.9 04:00:16 10° SSE 04:04:14 13° ESE 04:08:12 10° E visible
27 Apr 10.9 03:38:15 10° SE 03:41:21 12° ESE 03:44:27 10° ESE visible
28 Apr 10.9 03:16:43 10° SE 03:18:28 11° ESE 03:20:13 10° ESE visible
28 Apr 9.7 05:12:51 10° SSW 05:21:30 47° SE 05:30:11 10° ENE visible
29 Apr 9.7 04:50:01 10° SSW 04:58:33 44° SE 05:07:07 10° ENE visible
30 Apr 9.8 04:27:20 11° SSW 04:35:37 41° SE 04:44:02 10° ENE visible
01 May 9.8 04:05:40 15° SSW 04:12:40 39° SE 04:20:58 10° ENE visible
02 May 9.8 03:43:56 19° S 03:49:44 36° SE 03:57:52 10° ENE visible
